This demonstration page uses our WeatherBlox Daily Observations layout. Learn more.

Left ArrowRight Arrow

30.21309, -93.2044

Hourly Observations for May 24, 2022

Temp ( °F °C ) Dew Point ( °F °C ) Humidity (%) Winds ( mph kmh ) Pressure ( in mb ) Visibility ( mi km ) Precip ( " mm )
12:15 am 00:15 Partly Cloudy 72 22.4 70 21.2 93 93 E 3 6 29.93 1014 10 16 0.00 0.00
12:35 am 00:35 Mostly Cloudy 73 22.7 70 21.2 91 91 ENE 5 7 29.94 1014 10 16 0.00 0.00
12:55 am 00:55 Partly Cloudy 73 22.6 70 21 91 91 ENE 6 9 29.93 1014 10 16 0.00 0.00
1:15 am 01:15 Clear 72 22.3 70 20.9 92 92 E 6 9 29.92 1013 10 16 0.00 0.00
1:35 am 01:35 Clear 72 22.2 69 20.6 91 91 ENE 6 9 29.91 1013 10 16 0.00 0.00
1:55 am 01:55 Partly Cloudy 72 22.1 69 20.5 91 91 E 6 9 29.91 1013 10 16 0.00 0.00
2:15 am 02:15 Partly Cloudy 71 21.9 69 20.5 92 92 E 6 9 29.90 1013 10 16 0.00 0.00
2:35 am 02:35 Partly Cloudy 71 21.8 69 20.5 92 92 E 6 9 29.89 1012 10 16 0.00 0.00
2:55 am 02:55 Mostly Cloudy 71 21.8 69 20.5 92 92 E 6 9 29.88 1012 10 16 0.00 0.00
3:15 am 03:15 Cloudy 71 21.8 69 20.5 92 92 E 7 11 29.88 1012 N/A 0.00 0.00
3:35 am 03:35 Mostly Cloudy 71 21.6 69 20.3 92 92 E 7 11 29.87 1011 10 16 0.00 0.00
3:55 am 03:55 Partly Cloudy 71 21.5 69 20.3 93 93 E 8 13 29.85 1011 10 16 0.00 0.00
4:15 am 04:15 Partly Cloudy 70 21.3 68 20.2 93 93 E 8 13 29.84 1010 10 16 0.00 0.00
4:35 am 04:35 Mostly Cloudy 71 21.4 69 20.4 94 94 E 10 17 29.84 1010 7 11 0.00 0.00
4:55 am 04:55 Cloudy with Mist and Fog 71 21.4 69 20.4 94 94 E 7 11 29.85 1011 7 11 0.00 0.00
5:15 am 05:15 Cloudy with Mist and Fog 71 21.4 69 20.4 94 94 E 6 9 29.85 1011 7 11 0.00 0.00
5:35 am 05:35 Partly Cloudy with Mist and Fog 70 21.3 69 20.4 95 95 E 6 9 29.86 1011 5 8 0.00 0.00
6:00 am 06:00 Mostly Clear with Mist and Fog 70 21 70 21 100 100 E 8 13 29.85 1011 6 10 0.00 0.00
6:48 am 06:48 Mostly Cloudy with Mist and Fog 70 21 70 21 100 100 E 8 13 29.86 1011 6 10 0.00 0.00
7:45 am 07:45 Mostly Cloudy 73 23 72 22 94 94 ESE 8 13 29.88 1012 7 11 0.00 0.00
8:54 am 08:54 Mostly Cloudy 73 23 72 22 94 94 ESE 12 19 29.88 1012 7 11 0.00 0.00
9:45 am 09:45 Mostly Cloudy 81 27 73 23 79 79 SE 10 17 29.87 1011 7 11 0.00 0.00
10:54 am 10:54 Windy with Storms Likely 79 26 72 22 79 79 SSE 33 54 29.88 1012 5 8 0.00 0.00
11:55 am 11:55 Mostly Cloudy with Thunderstorms 70 21 66 19 88 88 S 6 9 29.88 1012 6 10 0.00 0.00
12:55 pm 12:55 Mostly Cloudy with Thunderstorms 72 22 68 20 88 88 S 6 9 29.87 1011 5 8 0.00 0.00
1:45 pm 13:45 Mostly Cloudy with Mist and Fog 72 22 70 21 94 94 N 15 24 29.85 1011 6 10 0.00 0.00
2:00 pm 14:00 Mostly Cloudy with Light Rain 72 22 70 21 94 94 N 6 9 29.85 1011 7 11 0.00 0.00
2:45 pm 14:45 Mostly Cloudy with Mist and Fog 73 23 70 21 89 89 Calm 29.86 1011 7 11 0.00 0.00
3:50 pm 15:50 Mostly Cloudy with Mist and Fog 79 26 72 22 79 79 NNW 3 6 29.82 1010 7 11 0.00 0.00
4:52 pm 16:52 Mostly Cloudy with Mist and Fog 77 25 72 22 83 83 NE 8 13 29.79 1009 7 11 0.00 0.00
5:45 pm 17:45 Mostly Cloudy with Thunderstorms 79 26 72 22 79 79 ESE 18 30 29.80 1009 10 16 0.00 0.00
6:00 pm 18:00 Mostly Cloudy with Thunderstorms 73 23 68 20 83 83 S 14 22 29.79 1009 2 3 0.00 0.00
6:45 pm 18:45 Cloudy with Thunderstorms 70 21 66 19 88 88 SSE 6 9 29.78 1008 5 8 0.00 0.00
7:45 pm 19:45 Cloudy with Light Rain 70 21 66 19 88 88 E 6 9 29.77 1008 10 16 0.00 0.00
8:45 pm 20:45 Mostly Clear with Light Rain 70 21 66 19 88 88 ESE 10 17 29.77 1008 10 16 0.00 0.00
9:46 pm 21:46 Mostly Clear 72 22 68 20 88 88 ESE 6 9 29.80 1009 10 16 0.00 0.00
10:15 pm 22:15 Clear 71 21.4 68 20 92 92 E 10 17 29.80 1009 10 16 0.00 0.00
10:35 pm 22:35 Partly Cloudy 71 21.5 68 20.1 92 92 ESE 10 17 29.82 1010 10 16 0.00 0.00
10:55 pm 22:55 Clear 71 21.7 69 20.3 92 92 E 10 17 29.83 1010 10 16 0.00 0.00
11:15 pm 23:15 Clear 71 21.8 69 20.4 92 92 ESE 10 17 29.82 1010 10 16 0.00 0.00
11:35 pm 23:35 Clear 71 21.7 69 20.3 92 92 E 8 13 29.82 1010 10 16 0.00 0.00
11:55 pm 23:55 Clear 71 21.6 69 20.3 92 92 E 8 13 29.83 1010 10 16 0.00 0.00

Powered by AerisWeather